Weather History for Clinton, MO

Change the Weather History Date:

Sunday, February 17, 2013

  Actual Average (KSZL) Record (KSZL)
Temperature  
Mean Temperature 46 °F -  
Max Temperature 62 °F 44 °F 73 °F (2011)
Min Temperature 30 °F 28 °F 10 °F (2006)
Degree Days  
Heating Degree Days 19    
Moisture  
Dew Point 28 °F    
Average Humidity 53    
Maximum Humidity 75    
Minimum Humidity 32    
Precipitation  
Precipitation 0.00 in - - ()
Sea Level Pressure  
Sea Level Pressure 29.94 in    
Wind  
Wind Speed 6 mph (SSE)    
Max Wind Speed 13 mph    
Max Gust Speed 20 mph    
Visibility 10 miles    
Events      
Averages and records for this station are not official NWS values.
T = Trace of Precipitation, MM = Missing Value Source: NWS Daily Summary

Daily Weather History Graph

Daily Weather History Graph

Search for Another Location

Airport:

Trip Planner

Search our weather history database for the weather conditions in past years. The results will help you decide how hot, cold, wet, or windy it might be!

Date:

Astronomy

Feb. 17, 2013 Rise Set
Actual Time 7:02 AM CST 5:55 PM CST
Civil Twilight 6:35 AM CST 6:22 PM CST
Nautical Twilight 6:04 AM CST 6:53 PM CST
Astronomical Twilight 5:33 AM CST 7:24 PM CST
Moon 11:02 AM CST (2/17) 12:45 AM CST (2/17)
Length of Visible Light 11h 47m
Length of Day
10h 53m
Waxing Crescent, 49% of the Moon is Illuminated
Feb 17
Waxing Crescent
Feb 17
First Quarter
Feb 25
Full
Mar 4
Last Quarter
Mar 11
New

Hourly Weather History & Observations

Time (CST) Temp. Windchill Dew Point Humidity Pressure Visibility Wind Dir Wind Speed Gust Speed Precip Events Conditions
12:15 AM 33.8 °F - 23.0 °F 65% 30.11 in 10.0 mi Calm Calm - N/A   Overcast
12:35 AM 33.8 °F 27.7 °F 23.0 °F 65% 30.11 in 10.0 mi SSE 6.9 mph - N/A   Overcast
12:55 AM 33.8 °F 27.7 °F 23.0 °F 65% 30.11 in 10.0 mi SSE 6.9 mph - N/A   Overcast
1:15 AM 33.8 °F 28.6 °F 23.0 °F 65% 30.10 in 10.0 mi SSE 5.8 mph - N/A   Overcast
1:35 AM 35.6 °F 29.9 °F 23.0 °F 60% 30.10 in 10.0 mi SE 6.9 mph - N/A   Overcast
1:55 AM 35.6 °F 29.9 °F 23.0 °F 60% 30.09 in 10.0 mi SSE 6.9 mph - N/A   Overcast
2:15 AM 35.6 °F 30.7 °F 23.0 °F 60% 30.08 in 10.0 mi SE 5.8 mph - N/A   Overcast
2:35 AM 33.8 °F - 23.0 °F 65% 30.08 in 10.0 mi Calm Calm - N/A   Overcast
2:55 AM 33.8 °F 29.6 °F 23.0 °F 65% 30.07 in 10.0 mi SE 4.6 mph - N/A   Scattered Clouds
3:15 AM 32.0 °F - 23.0 °F 69% 30.07 in 10.0 mi Calm Calm - N/A   Partly Cloudy
3:35 AM 32.0 °F - 23.0 °F 69% 30.07 in 10.0 mi Calm Calm - N/A   Clear
3:55 AM 32.0 °F - 23.0 °F 69% 30.06 in 10.0 mi Calm Calm - N/A   Clear
4:15 AM 32.0 °F - 23.0 °F 69% 30.06 in 10.0 mi Calm Calm - N/A   Clear
4:35 AM 32.0 °F 27.5 °F 23.0 °F 69% 30.06 in 10.0 mi SE 4.6 mph - N/A   Clear
4:55 AM 32.0 °F - 23.0 °F 69% 30.06 in 10.0 mi Calm Calm - N/A   Clear
5:15 AM 30.2 °F 25.4 °F 23.0 °F 75% 30.06 in 10.0 mi ESE 4.6 mph - N/A   Clear
5:35 AM 30.2 °F - 23.0 °F 75% 30.06 in 10.0 mi Calm Calm - N/A   Clear
5:55 AM 30.2 °F - 23.0 °F 75% 30.06 in 10.0 mi Calm Calm - N/A   Clear
6:15 AM 32.0 °F - 23.0 °F 69% 30.06 in 10.0 mi Calm Calm - N/A   Clear
6:35 AM 30.2 °F 26.7 °F 23.0 °F 75% 30.06 in 10.0 mi ESE 3.5 mph - N/A   Clear
6:55 AM 30.2 °F - 23.0 °F 75% 30.06 in 10.0 mi Calm Calm - N/A   Clear
7:15 AM 30.2 °F - 23.0 °F 75% 30.05 in 9.0 mi Calm Calm - N/A   Clear
7:35 AM 32.0 °F - 23.0 °F 69% 30.05 in 9.0 mi Calm Calm - N/A   Clear
7:55 AM 32.0 °F 26.4 °F 24.8 °F 75% 30.05 in 9.0 mi ESE 5.8 mph - N/A   Clear
8:15 AM 33.8 °F 28.6 °F 24.8 °F 70% 30.05 in 9.0 mi SE 5.8 mph - N/A   Clear
8:35 AM 35.6 °F 30.7 °F 24.8 °F 65% 30.05 in 9.0 mi SE 5.8 mph - N/A   Clear
8:55 AM 37.4 °F 31.4 °F 26.6 °F 65% 30.04 in 9.0 mi SSE 8.1 mph - N/A   Clear
9:15 AM 39.2 °F 34.2 °F 24.8 °F 56% 30.04 in 10.0 mi SSE 6.9 mph - N/A   Clear
9:35 AM 41.0 °F 35.2 °F 24.8 °F 53% 30.04 in 10.0 mi South 9.2 mph - N/A   Clear
10:15 AM 44.6 °F 39.2 °F 26.6 °F 49% 30.02 in 9.0 mi South 10.4 mph - N/A   Clear
10:35 AM 44.6 °F 40.7 °F 26.6 °F 49% 30.02 in 9.0 mi South 6.9 mph - N/A   Clear
10:55 AM 46.4 °F 42.9 °F 28.4 °F 50% 30.02 in 10.0 mi South 6.9 mph - N/A   Clear
11:15 AM 48.2 °F - 28.4 °F 46% 30.01 in 9.0 mi SSE 6.9 mph - N/A   Clear
11:35 AM 48.2 °F - 30.2 °F 50% 29.99 in 10.0 mi SE 9.2 mph - N/A   Clear
11:55 AM 51.8 °F - 30.2 °F 44% 29.98 in 9.0 mi ESE 6.9 mph - N/A   Clear
12:15 PM 51.8 °F - 30.2 °F 44% 29.97 in 9.0 mi SSE 6.9 mph - N/A   Clear
12:55 PM 55.4 °F - 30.2 °F 38% 29.94 in 9.0 mi SSE 9.2 mph 17.3 mph N/A   Clear
1:15 PM 55.4 °F - 32.0 °F 41% 29.92 in 9.0 mi SSE 8.1 mph - N/A   Clear
1:35 PM 57.2 °F - 32.0 °F 38% 29.91 in 9.0 mi SSE 10.4 mph 16.1 mph N/A   Clear
1:55 PM 59.0 °F - 32.0 °F 36% 29.90 in 9.0 mi South 11.5 mph - N/A   Clear
2:15 PM 60.8 °F - 32.0 °F 34% 29.88 in 9.0 mi SSW 10.4 mph 16.1 mph N/A   Clear
2:35 PM 60.8 °F - 32.0 °F 34% 29.87 in 9.0 mi SSE 12.7 mph - N/A   Clear
2:55 PM 60.8 °F - 32.0 °F 34% 29.86 in 9.0 mi SSE 12.7 mph - N/A   Clear
3:15 PM 60.8 °F - 32.0 °F 34% 29.86 in 9.0 mi South 9.2 mph - N/A   Clear
3:35 PM 62.6 °F - 32.0 °F 32% 29.85 in 9.0 mi South 11.5 mph - N/A   Clear
3:55 PM 62.6 °F - 32.0 °F 32% 29.85 in 10.0 mi South 9.2 mph - N/A   Clear
4:15 PM 62.6 °F - 32.0 °F 32% 29.84 in 10.0 mi South 11.5 mph 16.1 mph N/A   Clear
4:35 PM 62.6 °F - 32.0 °F 32% 29.83 in 10.0 mi South 9.2 mph - N/A   Clear
4:55 PM 60.8 °F - 32.0 °F 34% 29.83 in 9.0 mi SSE 6.9 mph - N/A   Clear
5:15 PM 59.0 °F - 32.0 °F 36% 29.82 in 10.0 mi SSE 8.1 mph - N/A   Clear
5:35 PM 57.2 °F - 32.0 °F 38% 29.82 in 10.0 mi SSE 8.1 mph - N/A   Clear
5:55 PM 55.4 °F - 32.0 °F 41% 29.81 in 10.0 mi SSE 6.9 mph - N/A   Clear
6:15 PM 55.4 °F - 32.0 °F 41% 29.81 in 10.0 mi SE 6.9 mph - N/A   Clear
6:35 PM 53.6 °F - 32.0 °F 44% 29.81 in 10.0 mi SE 6.9 mph - N/A   Clear
7:15 PM 53.6 °F - 32.0 °F 44% 29.80 in 10.0 mi SE 10.4 mph - N/A   Clear
7:35 PM 53.6 °F - 32.0 °F 44% 29.79 in 10.0 mi SE 10.4 mph - N/A   Clear
7:55 PM 53.6 °F - 32.0 °F 44% 29.79 in 10.0 mi SE 10.4 mph - N/A   Clear
8:15 PM 53.6 °F - 32.0 °F 44% 29.79 in 10.0 mi SE 9.2 mph - N/A   Clear
8:35 PM 51.8 °F - 32.0 °F 47% 29.79 in 10.0 mi SSE 9.2 mph - N/A   Clear
8:55 PM 51.8 °F - 32.0 °F 47% 29.78 in 10.0 mi SSE 10.4 mph - N/A   Clear
9:15 PM 51.8 °F - 32.0 °F 47% 29.78 in 10.0 mi SSE 10.4 mph - N/A   Clear
9:35 PM 51.8 °F - 32.0 °F 47% 29.79 in 10.0 mi SSE 8.1 mph - N/A   Clear
9:55 PM 51.8 °F - 32.0 °F 47% 29.78 in 10.0 mi SSE 12.7 mph - N/A   Clear
10:15 PM 51.8 °F - 32.0 °F 47% 29.78 in 10.0 mi SSE 11.5 mph - N/A   Clear
10:35 PM 51.8 °F - 32.0 °F 47% 29.77 in 10.0 mi South 11.5 mph 17.3 mph N/A   Clear
10:55 PM 51.8 °F - 32.0 °F 47% 29.77 in 10.0 mi South 11.5 mph - N/A   Clear
11:15 PM 51.8 °F - 32.0 °F 47% 29.77 in 10.0 mi South 10.4 mph 17.3 mph N/A   Clear
11:35 PM 51.8 °F - 32.0 °F 47% 29.76 in 10.0 mi South 11.5 mph 19.6 mph N/A   Clear
11:55 PM 51.8 °F - 32.0 °F 47% 29.76 in 10.0 mi South 12.7 mph 19.6 mph N/A   Clear